Weather History for Philip, SD

Change the Weather History Date:

Friday, March 15, 2013

  Actual Average Record
Temperature  
Mean Temperature 43 °F 34 °F  
Max Temperature 60 °F 47 °F 74 °F (1980)
Min Temperature 26 °F 22 °F -15 °F (1949)
Degree Days  
Heating Degree Days 22 31  
Month to date heating degree days 440 499  
Since 1 July heating degree days 5466 5864  
Cooling Degree Days 0 0  
Month to date cooling degree days 0 0  
Year to date cooling degree days 0 0  
Moisture  
Dew Point 29 °F    
Average Humidity 66    
Maximum Humidity 96    
Minimum Humidity 35    
Precipitation  
Precipitation 0.00 in 0.05 in 0.26 in (1987)
Month to date precipitation T 0.62  
Year to date precipitation 0.82 1.40  
Sea Level Pressure  
Sea Level Pressure 29.90 in    
Wind  
Wind Speed 6 mph (NE)    
Max Wind Speed 22 mph    
Max Gust Speed 26 mph    
Visibility 7 miles    
Events Fog    
T = Trace of Precipitation, MM = Missing Value Source: NWS Daily Summary

Daily Weather History Graph

Daily Weather History Graph

Search for Another Location

Airport:

Trip Planner

Search our weather history database for the weather conditions in past years. The results will help you decide how hot, cold, wet, or windy it might be!

Date:

Astronomy

Mar. 15, 2013 Rise Set
Actual Time 6:58 AM MDT 6:52 PM MDT
Civil Twilight 6:29 AM MDT 7:21 PM MDT
Nautical Twilight 5:55 AM MDT 7:55 PM MDT
Astronomical Twilight 5:21 AM MDT 8:29 PM MDT
Moon 8:40 AM MDT (3/15) 11:19 PM MDT (3/15)
Length of Visible Light 12h 52m
Length of Day
11h 54m
Waxing Crescent, 16% of the Moon is Illuminated
Mar 15
Waxing Crescent
Mar 19
First Quarter
Mar 27
Full
Apr 2
Last Quarter
Apr 10
New

Hourly Weather History & Observations

Time (MDT) Temp. Windchill Dew Point Humidity Pressure Visibility Wind Dir Wind Speed Gust Speed Precip Events Conditions
12:55 AM 45.0 °F 40.6 °F 28.0 °F 52% 29.86 in 10.0 mi West 8.1 mph - N/A   Clear
1:55 AM 39.9 °F 34.5 °F 28.0 °F 63% 29.86 in 10.0 mi West 8.1 mph - N/A   Clear
2:55 AM 39.0 °F 35.7 °F 27.0 °F 62% 29.87 in 10.0 mi West 4.6 mph - N/A   Clear
3:55 AM 42.1 °F 39.2 °F 32.0 °F 67% 29.85 in 10.0 mi ENE 4.6 mph - N/A   Scattered Clouds
4:55 AM 37.9 °F 32.1 °F 32.0 °F 79% 29.85 in 10.0 mi NNE 8.1 mph - N/A   Partly Cloudy
5:55 AM 33.1 °F 26.9 °F 28.9 °F 85% 29.88 in 10.0 mi NNE 6.9 mph - N/A   Clear
6:30 AM 32.0 °F - 28.4 °F 87% 29.86 in 10.0 mi Calm Calm - N/A   Scattered Clouds
6:38 AM 32.0 °F - 28.4 °F 87% 29.87 in 10.0 mi Calm Calm - N/A   Mostly Cloudy
6:55 AM 33.1 °F 30.0 °F 30.0 °F 89% 29.87 in 10.0 mi ENE 3.5 mph - N/A   Overcast
7:09 AM 33.8 °F 27.7 °F 30.2 °F 87% 29.86 in 6.0 mi ENE 6.9 mph - N/A   Overcast
7:41 AM 33.8 °F 27.0 °F 32.0 °F 93% 29.87 in 2.5 mi ENE 8.1 mph - N/A   Overcast
7:55 AM 33.1 °F 25.5 °F 32.0 °F 96% 29.88 in 2.5 mi ENE 9.2 mph - N/A   Overcast
8:22 AM 33.8 °F 28.6 °F 32.0 °F 93% 29.87 in 1.0 mi ENE 5.8 mph - N/A   Overcast
8:51 AM 33.8 °F 25.8 °F 32.0 °F 93% 29.89 in 2.0 mi NNE 10.4 mph - N/A   Overcast
8:55 AM 34.0 °F 28.8 °F 32.0 °F 92% 29.89 in 2.0 mi East 5.8 mph - N/A   Overcast
9:13 AM 33.8 °F 26.4 °F 32.0 °F 93% 29.87 in 1.5 mi ENE 9.2 mph - N/A   Overcast
9:23 AM 33.8 °F 26.4 °F 30.2 °F 87% 29.87 in 0.5 mi East 9.2 mph - N/A Fog Fog
9:45 AM 33.8 °F 25.3 °F 30.2 °F 87% 29.88 in 1.8 mi East 11.5 mph - N/A   Overcast
9:52 AM 33.8 °F 25.8 °F 30.2 °F 87% 29.88 in 2.5 mi ENE 10.4 mph - N/A   Overcast
9:55 AM 33.1 °F 24.4 °F 30.9 °F 92% 29.90 in 2.5 mi ENE 11.5 mph - N/A   Overcast
10:19 AM 33.8 °F 25.8 °F 30.2 °F 87% 29.87 in 4.0 mi ENE 10.4 mph - N/A   Overcast
10:52 AM 33.8 °F 28.6 °F 30.2 °F 87% 29.87 in 6.0 mi NE 5.8 mph - N/A   Overcast
10:55 AM 34.0 °F 27.2 °F 30.0 °F 85% 29.90 in 6.0 mi ENE 8.1 mph - N/A   Overcast
11:31 AM 35.6 °F - 28.4 °F 75% 29.87 in 9.0 mi Calm Calm - N/A   Overcast
11:55 AM 39.0 °F 36.8 °F 30.9 °F 73% 29.89 in 10.0 mi Variable 3.5 mph - N/A   Mostly Cloudy
12:13 PM 41.0 °F 37.1 °F 30.2 °F 65% 29.88 in 10.0 mi Variable 5.8 mph - N/A   Scattered Clouds
12:55 PM 43.0 °F - 30.9 °F 62% 29.87 in 10.0 mi Calm Calm - N/A   Clear
1:55 PM 48.0 °F - 32.0 °F 54% 29.85 in 10.0 mi WNW 4.6 mph - N/A   Clear
2:55 PM 53.1 °F - 33.1 °F 47% 29.82 in 10.0 mi Calm Calm - N/A   Clear
3:55 PM 57.0 °F - 33.1 °F 40% 29.80 in 10.0 mi Calm Calm - N/A   Clear
4:55 PM 59.0 °F - 32.0 °F 36% 29.81 in 10.0 mi ENE 6.9 mph - N/A   Clear
5:55 PM 55.0 °F - 28.9 °F 37% 29.84 in 10.0 mi ENE 9.2 mph - N/A   Clear
6:55 PM 46.0 °F 41.9 °F 28.9 °F 51% 29.90 in 10.0 mi ENE 8.1 mph - N/A   Clear
7:55 PM 39.0 °F 33.4 °F 26.1 °F 60% 29.95 in 10.0 mi East 8.1 mph - N/A   Clear
8:55 PM 36.0 °F 27.1 °F 26.1 °F 67% 29.99 in 10.0 mi NE 13.8 mph 17.3 mph N/A   Clear
9:55 PM 30.0 °F 17.5 °F 24.1 °F 79% 30.08 in 10.0 mi NE 19.6 mph 26.5 mph N/A   Clear
10:55 PM 27.0 °F 20.5 °F 21.9 °F 81% 30.10 in 10.0 mi ENE 5.8 mph - N/A   Clear
11:40 PM 26.6 °F - 21.2 °F 80% 30.07 in 10.0 mi Calm Calm - N/A   Mostly Cloudy
11:55 PM 28.0 °F - 21.9 °F 78% 30.13 in 10.0 mi Calm Calm - N/A   Overcast